"Time","Value","Approval","myLocation"
"2023-05-06 00:00",4.48957784360727,"Approved","OW417"
"2023-05-06 01:00",4.48958186856532,"Approved","OW417"
"2023-05-06 02:00",4.48958589352336,"Approved","OW417"
"2023-05-06 03:00",4.49058991848141,"Approved","OW417"
"2023-05-06 04:00",4.49059394343945,"Approved","OW417"
"2023-05-06 05:00",4.4915979683975,"Approved","OW417"
"2023-05-06 06:00",4.49260199335554,"Approved","OW417"
"2023-05-06 07:00",4.49360601831359,"Approved","OW417"
"2023-05-06 08:00",4.49461004327163,"Approved","OW417"
"2023-05-06 09:00",4.49461406822968,"Approved","OW417"
"2023-05-06 10:00",4.49561809318772,"Approved","OW417"
"2023-05-06 11:00",4.49562211814577,"Approved","OW417"
"2023-05-06 12:00",4.49662614310381,"Approved","OW417"
"2023-05-06 13:00",4.49663016806186,"Approved","OW417"
"2023-05-06 14:00",4.4976341930199,"Approved","OW417"
"2023-05-06 15:00",4.49863821797795,"Approved","OW417"
"2023-05-06 16:00",4.49964224293599,"Approved","OW417"
"2023-05-06 17:00",4.50064626789404,"Approved","OW417"
"2023-05-06 18:00",4.50065029285208,"Approved","OW417"
"2023-05-06 19:00",4.50065431781013,"Approved","OW417"
"2023-05-06 20:00",4.49965834276817,"Approved","OW417"
"2023-05-06 21:00",4.49966236772622,"Approved","OW417"
"2023-05-06 22:00",4.49866639268427,"Approved","OW417"
"2023-05-06 23:00",4.49767041764231,"Approved","OW417"
"2023-05-07 00:00",4.49667444260036,"Approved","OW417"
"2023-05-07 01:00",4.4956784675584,"Approved","OW417"
"2023-05-07 02:00",4.49568249251645,"Approved","OW417"
"2023-05-07 03:00",4.49568651747449,"Approved","OW417"
"2023-05-07 04:00",4.49669054243254,"Approved","OW417"
"2023-05-07 05:00",4.49669456739058,"Approved","OW417"
"2023-05-07 06:00",4.49669859234863,"Approved","OW417"
"2023-05-07 07:00",4.49770261730667,"Approved","OW417"
"2023-05-07 08:00",4.49770664226472,"Approved","OW417"
"2023-05-07 09:00",4.49871066722276,"Approved","OW417"
"2023-05-07 10:00",4.49871469218081,"Approved","OW417"
"2023-05-07 11:00",4.49971871713885,"Approved","OW417"
"2023-05-07 12:00",4.4987227420969,"Approved","OW417"
"2023-05-07 13:00",4.49972676705494,"Approved","OW417"
"2023-05-07 14:00",4.49973079201299,"Approved","OW417"
"2023-05-07 15:00",4.50073481697103,"Approved","OW417"
"2023-05-07 16:00",4.50173884192908,"Approved","OW417"
"2023-05-07 17:00",4.50174286688712,"Approved","OW417"
"2023-05-07 18:00",4.50274689184517,"Approved","OW417"
"2023-05-07 19:00",4.50275091680321,"Approved","OW417"
"2023-05-07 20:00",4.50275494176126,"Approved","OW417"
"2023-05-07 21:00",4.5027589667193,"Approved","OW417"
"2023-05-07 22:00",4.50476299167735,"Approved","OW417"
"2023-05-07 23:00",4.50376701663539,"Approved","OW417"
"2023-05-08 00:00",4.50177104159344,"Approved","OW417"
"2023-05-08 01:00",4.50077506655148,"Approved","OW417"
"2023-05-08 02:00",4.49977909150953,"Approved","OW417"
"2023-05-08 03:00",4.49978311646757,"Approved","OW417"
"2023-05-08 04:00",4.49878714142562,"Approved","OW417"
"2023-05-08 05:00",4.49979116638366,"Approved","OW417"
"2023-05-08 06:00",4.49979519134171,"Approved","OW417"
"2023-05-08 07:00",4.49979921629975,"Approved","OW417"
"2023-05-08 08:00",4.4998032412578,"Approved","OW417"
"2023-05-08 09:00",4.50080726621584,"Approved","OW417"
"2023-05-08 10:00",4.50081129117389,"Approved","OW417"
"2023-05-08 11:00",4.50081531613194,"Approved","OW417"
"2023-05-08 12:00",4.50181934108998,"Approved","OW417"
"2023-05-08 13:00",4.50182336604803,"Approved","OW417"
"2023-05-08 14:00",4.50282739100607,"Approved","OW417"
"2023-05-08 15:00",4.50383141596412,"Approved","OW417"
"2023-05-08 16:00",4.50383544092216,"Approved","OW417"
"2023-05-08 17:00",4.50483946588021,"Approved","OW417"
"2023-05-08 18:00",4.50484349083825,"Approved","OW417"
"2023-05-08 19:00",4.5068475157963,"Approved","OW417"
"2023-05-08 20:00",4.50785154075434,"Approved","OW417"
"2023-05-08 21:00",4.50685556571239,"Approved","OW417"
"2023-05-08 22:00",4.50785959067043,"Approved","OW417"
"2023-05-08 23:00",4.50686361562848,"Approved","OW417"
"2023-05-09 00:00",4.50586764058652,"Approved","OW417"
"2023-05-09 01:00",4.50587166554457,"Approved","OW417"
"2023-05-09 02:00",4.50487569050261,"Approved","OW417"
"2023-05-09 03:00",4.50387971546066,"Approved","OW417"
"2023-05-09 04:00",4.5038837404187,"Approved","OW417"
"2023-05-09 05:00",4.50388776537675,"Approved","OW417"
"2023-05-09 06:00",4.50489179033479,"Approved","OW417"
"2023-05-09 07:00",4.50489581529284,"Approved","OW417"
"2023-05-09 08:00",4.50589984025088,"Approved","OW417"
"2023-05-09 09:00",4.50590386520893,"Approved","OW417"
"2023-05-09 10:00",4.50590789016697,"Approved","OW417"
"2023-05-09 11:00",4.50691191512502,"Approved","OW417"
"2023-05-09 12:00",4.50691594008306,"Approved","OW417"
"2023-05-09 13:00",4.50791996504111,"Approved","OW417"
"2023-05-09 14:00",4.50792398999915,"Approved","OW417"
"2023-05-09 15:00",4.5079280149572,"Approved","OW417"
"2023-05-09 16:00",4.50893203991524,"Approved","OW417"
"2023-05-09 17:00",4.50993606487329,"Approved","OW417"
"2023-05-09 18:00",4.50994008983133,"Approved","OW417"
"2023-05-09 19:00",4.50994411478938,"Approved","OW417"
"2023-05-09 20:00",4.51094813974742,"Approved","OW417"
"2023-05-09 21:00",4.51095216470547,"Approved","OW417"
"2023-05-09 22:00",4.51095618966351,"Approved","OW417"
"2023-05-09 23:00",4.51096021462156,"Approved","OW417"
"2023-05-10 00:00",4.5109642395796,"Approved","OW417"
"2023-05-10 01:00",4.50996826453765,"Approved","OW417"
"2023-05-10 02:00",4.50897228949569,"Approved","OW417"
"2023-05-10 03:00",4.50897631445374,"Approved","OW417"
"2023-05-10 04:00",4.50898033941179,"Approved","OW417"
"2023-05-10 05:00",4.50898436436983,"Approved","OW417"
"2023-05-10 06:00",4.50898838932788,"Approved","OW417"
"2023-05-10 07:00",4.50899241428592,"Approved","OW417"
"2023-05-10 08:00",4.50999643924397,"Approved","OW417"
"2023-05-10 09:00",4.51000046420201,"Approved","OW417"
"2023-05-10 10:00",4.51000448916006,"Approved","OW417"
"2023-05-10 11:00",4.5110085141181,"Approved","OW417"
"2023-05-10 12:00",4.51101253907615,"Approved","OW417"
"2023-05-10 13:00",4.51101656403419,"Approved","OW417"
"2023-05-10 14:00",4.51202058899224,"Approved","OW417"
"2023-05-10 15:00",4.51202461395028,"Approved","OW417"
"2023-05-10 16:00",4.51102863890833,"Approved","OW417"
"2023-05-10 17:00",4.51103266386637,"Approved","OW417"
"2023-05-10 18:00",4.51103668882442,"Approved","OW417"
"2023-05-10 19:00",4.51104071378246,"Approved","OW417"
"2023-05-10 20:00",4.51204473874051,"Approved","OW417"
"2023-05-10 21:00",4.51204876369855,"Approved","OW417"
"2023-05-10 22:00",4.5120527886566,"Approved","OW417"
"2023-05-10 23:00",4.51205681361464,"Approved","OW417"
"2023-05-11 00:00",4.51206083857269,"Approved","OW417"
"2023-05-11 01:00",4.51206486353073,"Approved","OW417"
"2023-05-11 02:00",4.51106888848878,"Approved","OW417"
"2023-05-11 03:00",4.51207291344682,"Approved","OW417"
"2023-05-11 04:00",4.51207693840487,"Approved","OW417"
"2023-05-11 05:00",4.51108096336291,"Approved","OW417"
"2023-05-11 06:00",4.51108498832096,"Approved","OW417"
"2023-05-11 07:00",4.511089013279,"Approved","OW417"
"2023-05-11 08:00",4.51109303823705,"Approved","OW417"
"2023-05-11 09:00",4.51109706319509,"Approved","OW417"
"2023-05-11 10:00",4.51210108815314,"Approved","OW417"
"2023-05-11 11:00",4.51210511311118,"Approved","OW417"
"2023-05-11 12:00",4.51210913806923,"Approved","OW417"
"2023-05-11 13:00",4.51311316302727,"Approved","OW417"
"2023-05-11 14:00",4.51311718798532,"Approved","OW417"
"2023-05-11 15:00",4.51312121294337,"Approved","OW417"
"2023-05-11 16:00",4.51312523790141,"Approved","OW417"
"2023-05-11 17:00",4.51312926285946,"Approved","OW417"
"2023-05-11 18:00",4.5141332878175,"Approved","OW417"
"2023-05-11 19:00",4.51413731277555,"Approved","OW417"
"2023-05-11 20:00",4.51414133773359,"Approved","OW417"
"2023-05-11 21:00",4.51414536269164,"Approved","OW417"
"2023-05-11 22:00",4.51514938764968,"Approved","OW417"
"2023-05-11 23:00",4.51615341260773,"Approved","OW417"
"2023-05-12 00:00",4.51515743756577,"Approved","OW417"
"2023-05-12 01:00",4.51516146252382,"Approved","OW417"
"2023-05-12 02:00",4.51516548748186,"Approved","OW417"
"2023-05-12 03:00",4.51616951243991,"Approved","OW417"
"2023-05-12 04:00",4.51717353739795,"Approved","OW417"
"2023-05-12 05:00",4.517177562356,"Approved","OW417"
"2023-05-12 06:00",4.51718158731404,"Approved","OW417"
"2023-05-12 07:00",4.51718561227209,"Approved","OW417"
"2023-05-12 08:00",4.51718963723013,"Approved","OW417"
"2023-05-12 09:00",4.51719366218818,"Approved","OW417"
"2023-05-12 10:00",4.51819768714622,"Approved","OW417"
"2023-05-12 11:00",4.51820171210427,"Approved","OW417"
"2023-05-12 12:00",4.51920573706231,"Approved","OW417"
"2023-05-12 13:00",4.52020976202036,"Approved","OW417"
"2023-05-12 14:00",4.5202137869784,"Approved","OW417"
"2023-05-12 15:00",4.52021781193645,"Approved","OW417"
"2023-05-12 16:00",4.52022183689449,"Approved","OW417"
"2023-05-12 17:00",4.51922586185254,"Approved","OW417"
"2023-05-12 18:00",4.52022988681058,"Approved","OW417"
"2023-05-12 19:00",4.51923391176863,"Approved","OW417"
"2023-05-12 20:00",4.51923793672667,"Approved","OW417"
"2023-05-12 21:00",4.52024196168472,"Approved","OW417"
"2023-05-12 22:00",4.52024598664276,"Approved","OW417"
"2023-05-12 23:00",4.52125001160081,"Approved","OW417"
"2023-05-13 00:00",4.52125403655885,"Approved","OW417"
"2023-05-13 01:00",4.5222580615169,"Approved","OW417"
"2023-05-13 02:00",4.52326208647495,"Approved","OW417"
"2023-05-13 03:00",4.52426611143299,"Approved","OW417"
"2023-05-13 04:00",4.52527013639104,"Approved","OW417"
"2023-05-13 05:00",4.52527416134908,"Approved","OW417"
"2023-05-13 06:00",4.52527818630713,"Approved","OW417"
"2023-05-13 07:00",4.52528221126517,"Approved","OW417"
"2023-05-13 08:00",4.52528623622322,"Approved","OW417"
"2023-05-13 09:00",4.52629026118126,"Approved","OW417"
"2023-05-13 10:00",4.52629428613931,"Approved","OW417"
"2023-05-13 11:00",4.52629831109735,"Approved","OW417"
"2023-05-13 12:00",4.5273023360554,"Approved","OW417"
"2023-05-13 13:00",4.52830636101344,"Approved","OW417"
"2023-05-13 14:00",4.52731038597149,"Approved","OW417"
"2023-05-13 15:00",4.52831441092953,"Approved","OW417"
"2023-05-13 16:00",4.52731843588758,"Approved","OW417"
"2023-05-13 17:00",4.52832246084562,"Approved","OW417"
"2023-05-13 18:00",4.52732648580367,"Approved","OW417"
"2023-05-13 19:00",4.52733051076171,"Approved","OW417"
"2023-05-13 20:00",4.52733453571976,"Approved","OW417"
"2023-05-13 21:00",4.5273385606778,"Approved","OW417"
"2023-05-13 22:00",4.52834258563585,"Approved","OW417"
"2023-05-13 23:00",4.52834661059389,"Approved","OW417"
"2023-05-14 00:00",4.52835063555194,"Approved","OW417"
"2023-05-14 01:00",4.52935466050998,"Approved","OW417"
"2023-05-14 02:00",4.52935868546803,"Approved","OW417"
"2023-05-14 03:00",4.53036271042607,"Approved","OW417"
"2023-05-14 04:00",4.53136673538412,"Approved","OW417"
"2023-05-14 05:00",4.53237076034216,"Approved","OW417"
"2023-05-14 06:00",4.53237478530021,"Approved","OW417"
"2023-05-14 07:00",4.53237881025825,"Approved","OW417"
"2023-05-14 08:00",4.5333828352163,"Approved","OW417"
"2023-05-14 09:00",4.53238686017434,"Approved","OW417"
"2023-05-14 10:00",4.53339088513239,"Approved","OW417"
"2023-05-14 11:00",4.53339491009043,"Approved","OW417"
"2023-05-14 12:00",4.53339893504848,"Approved","OW417"
"2023-05-14 13:00",4.53340296000652,"Approved","OW417"
"2023-05-14 14:00",4.53440698496457,"Approved","OW417"
"2023-05-14 15:00",4.53441100992262,"Approved","OW417"
"2023-05-14 16:00",4.53441503488066,"Approved","OW417"
"2023-05-14 17:00",4.5334190598387,"Approved","OW417"
"2023-05-14 18:00",4.53242308479675,"Approved","OW417"
"2023-05-14 19:00",4.5314271097548,"Approved","OW417"
"2023-05-14 20:00",4.53043113471284,"Approved","OW417"
"2023-05-14 21:00",4.52943515967089,"Approved","OW417"
"2023-05-14 22:00",4.52943918462893,"Approved","OW417"
"2023-05-14 23:00",4.52844320958698,"Approved","OW417"
"2023-05-15 00:00",4.52844723454502,"Approved","OW417"
"2023-05-15 01:00",4.52845125950307,"Approved","OW417"
"2023-05-15 02:00",4.52745528446111,"Approved","OW417"
"2023-05-15 03:00",4.52845930941916,"Approved","OW417"
"2023-05-15 04:00",4.5294633343772,"Approved","OW417"
"2023-05-15 05:00",4.53046735933525,"Approved","OW417"
"2023-05-15 06:00",4.52947138429329,"Approved","OW417"
"2023-05-15 07:00",4.52947540925134,"Approved","OW417"
"2023-05-15 08:00",4.52947943420938,"Approved","OW417"
"2023-05-15 09:00",4.52848345916743,"Approved","OW417"
"2023-05-15 10:00",4.52748748412547,"Approved","OW417"
"2023-05-15 11:00",4.52749150908352,"Approved","OW417"
"2023-05-15 12:00",4.52749553404156,"Approved","OW417"
"2023-05-15 13:00",4.52749955899961,"Approved","OW417"
"2023-05-15 14:00",4.52750358395765,"Approved","OW417"
"2023-05-15 15:00",4.5275076089157,"Approved","OW417"
"2023-05-15 16:00",4.52651163387374,"Approved","OW417"
"2023-05-15 17:00",4.52551565883179,"Approved","OW417"
"2023-05-15 18:00",4.52351968378983,"Approved","OW417"
"2023-05-15 19:00",4.52252370874788,"Approved","OW417"
"2023-05-15 20:00",4.52052773370592,"Approved","OW417"
"2023-05-15 21:00",4.51853175866397,"Approved","OW417"
"2023-05-15 22:00",4.51753578362201,"Approved","OW417"
"2023-05-15 23:00",4.51653980858006,"Approved","OW417"
"2023-05-16 00:00",4.5155438335381,"Approved","OW417"
"2023-05-16 01:00",4.51654785849615,"Approved","OW417"
"2023-05-16 02:00",4.52055188345419,"Approved","OW417"
"2023-05-16 03:00",4.52155590841224,"Approved","OW417"
"2023-05-16 04:00",4.52355993337028,"Approved","OW417"
"2023-05-16 05:00",4.52456395832833,"Approved","OW417"
"2023-05-16 06:00",4.52556798328637,"Approved","OW417"
"2023-05-16 07:00",4.52657200824442,"Approved","OW417"
"2023-05-16 08:00",4.52657603320247,"Approved","OW417"
"2023-05-16 09:00",4.52658005816051,"Approved","OW417"
"2023-05-16 10:00",4.52758408311855,"Approved","OW417"
"2023-05-16 11:00",4.5275881080766,"Approved","OW417"
"2023-05-16 12:00",4.52859213303465,"Approved","OW417"
"2023-05-16 13:00",4.52859615799269,"Approved","OW417"
"2023-05-16 14:00",4.53060018295074,"Approved","OW417"
"2023-05-16 15:00",4.53160420790878,"Approved","OW417"
"2023-05-16 16:00",4.53260823286683,"Approved","OW417"
"2023-05-16 17:00",4.53161225782487,"Approved","OW417"
"2023-05-16 18:00",4.53161628278292,"Approved","OW417"
"2023-05-16 19:00",4.53062030774096,"Approved","OW417"
"2023-05-16 20:00",4.52962433269901,"Approved","OW417"
"2023-05-16 21:00",4.52962835765705,"Approved","OW417"
"2023-05-16 22:00",4.5286323826151,"Approved","OW417"
"2023-05-16 23:00",4.52663640757314,"Approved","OW417"
"2023-05-17 00:00",4.52564043253119,"Approved","OW417"
"2023-05-17 01:00",4.52564445748923,"Approved","OW417"
"2023-05-17 02:00",4.52564848244728,"Approved","OW417"
"2023-05-17 03:00",4.52665250740532,"Approved","OW417"
"2023-05-17 04:00",4.52665653236337,"Approved","OW417"
"2023-05-17 05:00",4.52766055732141,"Approved","OW417"
"2023-05-17 06:00",4.52766458227946,"Approved","OW417"
"2023-05-17 07:00",4.5286686072375,"Approved","OW417"
"2023-05-17 08:00",4.52867263219555,"Approved","OW417"
"2023-05-17 09:00",4.52767665715359,"Approved","OW417"
"2023-05-17 10:00",4.52868068211164,"Approved","OW417"
"2023-05-17 11:00",4.52868470706968,"Approved","OW417"
"2023-05-17 12:00",4.52868873202773,"Approved","OW417"
"2023-05-17 13:00",4.52869275698577,"Approved","OW417"
"2023-05-17 14:00",4.52969678194382,"Approved","OW417"
"2023-05-17 15:00",4.52970080690186,"Approved","OW417"
"2023-05-17 16:00",4.53070483185991,"Approved","OW417"
"2023-05-17 17:00",4.53070885681795,"Approved","OW417"
"2023-05-17 18:00",4.530712881776,"Approved","OW417"
"2023-05-17 19:00",4.52971690673404,"Approved","OW417"
"2023-05-17 20:00",4.52972093169209,"Approved","OW417"
"2023-05-17 21:00",4.52772495665014,"Approved","OW417"
"2023-05-17 22:00",4.52672898160818,"Approved","OW417"
"2023-05-17 23:00",4.52573300656623,"Approved","OW417"
"2023-05-18 00:00",4.52373703152427,"Approved","OW417"
"2023-05-18 01:00",4.52274105648232,"Approved","OW417"
"2023-05-18 02:00",4.52274508144036,"Approved","OW417"
"2023-05-18 03:00",4.52274910639841,"Approved","OW417"
"2023-05-18 04:00",4.52275313135645,"Approved","OW417"
"2023-05-18 05:00",4.5247571563145,"Approved","OW417"
"2023-05-18 06:00",4.52476118127254,"Approved","OW417"
"2023-05-18 07:00",4.52576520623059,"Approved","OW417"
"2023-05-18 08:00",4.52576923118863,"Approved","OW417"
"2023-05-18 09:00",4.52577325614668,"Approved","OW417"
"2023-05-18 10:00",4.52477728110472,"Approved","OW417"
"2023-05-18 11:00",4.52478130606277,"Approved","OW417"
"2023-05-18 12:00",4.52578533102081,"Approved","OW417"
"2023-05-18 13:00",4.52578935597886,"Approved","OW417"
"2023-05-18 14:00",4.5257933809369,"Approved","OW417"
"2023-05-18 15:00",4.52679740589495,"Approved","OW417"
"2023-05-18 16:00",4.52680143085299,"Approved","OW417"
"2023-05-18 17:00",4.52580545581104,"Approved","OW417"
"2023-05-18 18:00",4.52580948076908,"Approved","OW417"
"2023-05-18 19:00",4.52581350572713,"Approved","OW417"
"2023-05-18 20:00",4.52397492844304,"Approved","OW417"
"2023-05-18 21:00",4.52315681360059,"Approved","OW417"
"2023-05-18 22:00",4.52215622944332,"Approved","OW417"
"2023-05-18 23:00",4.52015564528604,"Approved","OW417"
"2023-05-19 00:00",4.51815506112877,"Approved","OW417"
"2023-05-19 01:00",4.51615447697149,"Approved","OW417"
"2023-05-19 02:00",4.51515389281422,"Approved","OW417"
"2023-05-19 03:00",4.51615330865694,"Approved","OW417"
"2023-05-19 04:00",4.51615272449967,"Approved","OW417"
"2023-05-19 05:00",4.5161521403424,"Approved","OW417"
"2023-05-19 06:00",4.51715155618512,"Approved","OW417"
"2023-05-19 07:00",4.51715097202785,"Approved","OW417"
"2023-05-19 08:00",4.51715038787057,"Approved","OW417"
"2023-05-19 09:00",4.5171498037133,"Approved","OW417"
"2023-05-19 10:00",4.51714921955602,"Approved","OW417"
"2023-05-19 11:00",4.51614863539875,"Approved","OW417"
"2023-05-19 12:00",4.51614805124148,"Approved","OW417"
"2023-05-19 13:00",4.5171474670842,"Approved","OW417"
"2023-05-19 14:00",4.51714688292693,"Approved","OW417"
"2023-05-19 15:00",4.51814629876965,"Approved","OW417"
"2023-05-19 16:00",4.51814571461238,"Approved","OW417"
"2023-05-19 17:00",4.5181451304551,"Approved","OW417"
"2023-05-19 18:00",4.51914454629783,"Approved","OW417"
"2023-05-19 19:00",4.52014396214056,"Approved","OW417"
"2023-05-19 20:00",4.52114337798328,"Approved","OW417"
"2023-05-19 21:00",4.52114279382601,"Approved","OW417"
"2023-05-19 22:00",4.52114220966873,"Approved","OW417"
"2023-05-19 23:00",4.52014162551146,"Approved","OW417"
"2023-05-20 00:00",4.51914104135418,"Approved","OW417"
"2023-05-20 01:00",4.51914045719691,"Approved","OW417"
"2023-05-20 02:00",4.51913987303964,"Approved","OW417"
"2023-05-20 03:00",4.51913928888236,"Approved","OW417"
"2023-05-20 04:00",4.51913870472509,"Approved","OW417"
"2023-05-20 05:00",4.52013812056781,"Approved","OW417"
"2023-05-20 06:00",4.52113753641054,"Approved","OW417"
"2023-05-20 07:00",4.52113695225326,"Approved","OW417"
"2023-05-20 08:00",4.52213636809599,"Approved","OW417"
"2023-05-20 09:00",4.52313578393872,"Approved","OW417"
"2023-05-20 10:00",4.52213519978144,"Approved","OW417"
"2023-05-20 11:00",4.52313461562417,"Approved","OW417"
"2023-05-20 12:00",4.52313403146689,"Approved","OW417"
"2023-05-20 13:00",4.52413344730962,"Approved","OW417"
"2023-05-20 14:00",4.52313286315234,"Approved","OW417"
"2023-05-20 15:00",4.52413227899507,"Approved","OW417"
"2023-05-20 16:00",4.5241316948378,"Approved","OW417"
"2023-05-20 17:00",4.52513111068052,"Approved","OW417"
"2023-05-20 18:00",4.52513052652325,"Approved","OW417"
"2023-05-20 19:00",4.52512994236597,"Approved","OW417"
"2023-05-20 20:00",4.5241293582087,"Approved","OW417"
"2023-05-20 21:00",4.52312877405142,"Approved","OW417"
"2023-05-20 22:00",4.52212818989415,"Approved","OW417"
"2023-05-20 23:00",4.52012760573688,"Approved","OW417"
"2023-05-21 00:00",4.5181270215796,"Approved","OW417"
"2023-05-21 01:00",4.51712643742233,"Approved","OW417"
"2023-05-21 02:00",4.51612585326505,"Approved","OW417"
"2023-05-21 03:00",4.51612526910778,"Approved","OW417"
"2023-05-21 04:00",4.5161246849505,"Approved","OW417"
"2023-05-21 05:00",4.51712410079323,"Approved","OW417"
"2023-05-21 06:00",4.51712351663596,"Approved","OW417"
"2023-05-21 07:00",4.51812293247868,"Approved","OW417"
"2023-05-21 08:00",4.51812234832141,"Approved","OW417"
"2023-05-21 09:00",4.51812176416413,"Approved","OW417"
"2023-05-21 10:00",4.51912118000686,"Approved","OW417"
"2023-05-21 11:00",4.51812059584958,"Approved","OW417"
"2023-05-21 12:00",4.51812001169231,"Approved","OW417"
"2023-05-21 13:00",4.51911942753504,"Approved","OW417"
"2023-05-21 14:00",4.51811884337776,"Approved","OW417"
"2023-05-21 15:00",4.51811825922049,"Approved","OW417"
"2023-05-21 16:00",4.51811767506321,"Approved","OW417"
"2023-05-21 17:00",4.51811709090594,"Approved","OW417"
"2023-05-21 18:00",4.51911650674866,"Approved","OW417"
"2023-05-21 19:00",4.51911592259139,"Approved","OW417"
"2023-05-21 20:00",4.51911533843412,"Approved","OW417"
"2023-05-21 21:00",4.51911475427684,"Approved","OW417"
"2023-05-21 22:00",4.51811417011957,"Approved","OW417"
"2023-05-21 23:00",4.51811358596229,"Approved","OW417"
"2023-05-22 00:00",4.51711300180502,"Approved","OW417"
"2023-05-22 01:00",4.51711241764774,"Approved","OW417"
"2023-05-22 02:00",4.51611183349047,"Approved","OW417"
"2023-05-22 03:00",4.5151112493332,"Approved","OW417"
"2023-05-22 04:00",4.51511066517592,"Approved","OW417"
"2023-05-22 05:00",4.51511008101865,"Approved","OW417"
"2023-05-22 06:00",4.51410949686137,"Approved","OW417"
"2023-05-22 07:00",4.5151089127041,"Approved","OW417"
"2023-05-22 08:00",4.51610832854682,"Approved","OW417"
"2023-05-22 09:00",4.51510774438955,"Approved","OW417"
"2023-05-22 10:00",4.51510716023227,"Approved","OW417"
"2023-05-22 11:00",4.515106576075,"Approved","OW417"
"2023-05-22 12:00",4.51310599191773,"Approved","OW417"
"2023-05-22 13:00",4.51210540776045,"Approved","OW417"
"2023-05-22 14:00",4.51110482360318,"Approved","OW417"
"2023-05-23 15:00",4.48909021967132,"Approved","OW417"
"2023-05-23 16:00",4.48908963551405,"Approved","OW417"
"2023-05-23 17:00",4.49008905135677,"Approved","OW417"
"2023-05-23 18:00",4.4910884671995,"Approved","OW417"
"2023-05-23 19:00",4.49108788304222,"Approved","OW417"
"2023-05-23 20:00",4.49108729888495,"Approved","OW417"
"2023-05-23 21:00",4.49208671472768,"Approved","OW417"
"2023-05-23 22:00",4.4920861305704,"Approved","OW417"
"2023-05-23 23:00",4.49208554641313,"Approved","OW417"
"2023-05-24 00:00",4.49108496225585,"Approved","OW417"
"2023-05-24 01:00",4.49108437809858,"Approved","OW417"
"2023-05-24 02:00",4.4900837939413,"Approved","OW417"
"2023-05-24 03:00",4.49008320978403,"Approved","OW417"
"2023-05-24 04:00",4.48808262562676,"Approved","OW417"
"2023-05-24 05:00",4.48708204146948,"Approved","OW417"
"2023-05-24 06:00",4.48608145731221,"Approved","OW417"
"2023-05-24 07:00",4.48608087315493,"Approved","OW417"
"2023-05-24 08:00",4.48608028899766,"Approved","OW417"
"2023-05-24 09:00",4.48607970484038,"Approved","OW417"
"2023-05-24 10:00",4.48607912068311,"Approved","OW417"
"2023-05-24 11:00",4.48607853652584,"Approved","OW417"
"2023-05-24 12:00",4.48607795236856,"Approved","OW417"
"2023-05-24 13:00",4.48607736821129,"Approved","OW417"
"2023-05-24 14:00",4.48707678405401,"Approved","OW417"
"2023-05-24 15:00",4.48707619989674,"Approved","OW417"
"2023-05-24 16:00",4.48707561573946,"Approved","OW417"
"2023-05-24 17:00",4.48807503158219,"Approved","OW417"
"2023-05-24 18:00",4.48807444742492,"Approved","OW417"
"2023-05-24 19:00",4.48807386326764,"Approved","OW417"